Miscellaneous Local Product
Issued by NWS Hastings, NE

Home | Current Version | Previous Version | Text Only | Print | Product List | Glossary On
Versions: 1 2 3 4 5 6 7 8 9 10 11 12 13 14 15 16 17 18 19 20 21 22 23 24 25 26 27 28 29 30 31 32 33 34 35 36 37 38 39 40 41 42 43 44 45 46 47 48 49 50
000
AXUS43 KGID 231202
MISGRI

GID CWA HOURLY WEATHER ROUNDUP
NATIONAL WEATHER SERVICE HASTINGS NE
700 AM CDT SAT MAY 23 2015

NOTE: "FAIR" INDICATES FEW OR NO CLOUDS BELOW 12,000 FEET WITH NO
SIGNIFICANT WEATHER AND/OR OBSTRUCTIONS TO VISIBILITY.

...SOUTH CENTRAL NEBRASKA...

CITY           SKY/WX    TMP DP  RH WIND       PRES   REMARKS
GRAND ISLAND   CLOUDY    53  50  89 SE10      30.15S
HASTINGS       CLOUDY    53  51  93 SE8       30.13F
KEARNEY        CLOUDY    52  50  93 SE12      30.11F VSB 1/2
ORD            CLOUDY    52  50  93 SE7       30.11S
YORK           CLOUDY    54  50  87 SE6       30.17R
AURORA         CLOUDY    53  51  91 SE8       30.15S
LEXINGTON      FOG       55  54  97 S14       30.09S VSB 1/2
HOLDREGE       CLOUDY    53  52  97 S15G21    30.09F
HEBRON         CLOUDY    54  51  89 SE8       30.16S

...NEBRASKA PANHANDLE...

CITY           SKY/WX    TMP DP  RH WIND       PRES   REMARKS
CHADRON        CLOUDY    48  45  89 SE5       30.05R
ALLIANCE       CLOUDY    47  47 100 E5        30.04R FOG
SCOTTSBLUFF    FOG       46  46 100 E8        30.03S VSB 3/4
SIDNEY         FOG       49  48  97 NE3       30.04S VSB 1/4

...WESTERN AND NORTH CENTRAL NEBRASKA...

CITY           SKY/WX    TMP DP  RH WIND       PRES   REMARKS
VALENTINE      CLOUDY    49  48  97 E7        30.09S FOG
AINSWORTH      DRIZZLE   52  52 100 SE3       30.10R
ONEILL         CLOUDY    53  50  90 SE6       30.14R
BROKEN BOW     FOG       53  52  96 SE10      30.09R VSB 3/4
IMPERIAL       CLOUDY    52  50  93 SE13      30.03F
NORTH PLATTE   CLOUDY    53  51  93 SE12      30.06R
MCCOOK         CLOUDY    53  52  96 SE14      30.03F

...EASTERN NEBRASKA...

CITY           SKY/WX    TMP DP  RH WIND       PRES   REMARKS
NORFOLK        CLOUDY    54  49  83 SE6       30.18R
SO SIOUX CITY  CLOUDY    56  50  80 SE7       30.20R
TEKAMAH        CLOUDY    57  52  83 SE6       30.20R
COLUMBUS       CLOUDY    54  46  76 SE7       30.21S
ALBION         CLOUDY    53  47  82 SE8       30.16R
OMAHA EPPLEY   CLOUDY    59  51  75 SE6       30.21R
OFFUTT AFB     MOCLDY    57  52  85 SE2       30.20R
MILLARD        CLOUDY    58  51  76 E3        30.20R
LINCOLN        CLOUDY    56  51  84 S8        30.20R
NEBRASKA CITY  RAIN      56  54  93 S3        30.21R
BEATRICE       CLOUDY    55  52  88 SE5       30.18R
FALLS CITY     CLOUDY    56  54  93 SE3       30.21R

...NORTHERN KANSAS...

CITY           SKY/WX    TMP DP  RH WIND       PRES   REMARKS
GOODLAND       CLOUDY    53  53 100 SE15      30.02F FOG
HILL CITY      CLOUDY    54  52  93 S10       30.09F
NORTON         DRIZZLE   54  50  87 E8        30.08F
PHILLIPSBURG   CLOUDY    55  55 100 E6        30.11F
SMITH CENTER   CLOUDY    52  52 100 E7        30.13F
HAYS           CLOUDY    54  46  76 SE9       30.09F
RUSSELL        CLOUDY    54  53  97 SE12      30.08F
CONCORDIA      CLOUDY    54  52  93 SE6       30.16R
SALINA         CLOUDY    57  53  86 S9        30.14F
TOPEKA         CLOUDY    58  53  84 SE6       30.21R



USA.gov is the U.S. government's official web portal to all federal, state and local government web resources and services.